TimePDT,TemperatureF,Dew PointF,Humidity,Sea Level PressureIn,VisibilityMPH,Wind Direction,Wind SpeedMPH,Gust SpeedMPH,PrecipitationIn,Events,Conditions,WindDirDegrees,DateUTC
12:15 AM,59.0,28.4,31,30.03,10.0,Calm,Calm,-,N/A,,Clear,0,2013-03-20 07:15:00
12:35 AM,57.2,23.0,27,30.02,10.0,Calm,Calm,-,N/A,,Clear,0,2013-03-20 07:35:00
12:55 AM,57.2,23.0,27,30.02,10.0,Calm,Calm,-,N/A,,Clear,0,2013-03-20 07:55:00
1:15 AM,59.0,19.4,22,30.02,10.0,Calm,Calm,-,N/A,,Clear,0,2013-03-20 08:15:00
1:35 AM,59.0,19.4,22,30.02,10.0,Calm,Calm,-,N/A,,Clear,0,2013-03-20 08:35:00
1:55 AM,59.0,21.2,23,30.01,10.0,Calm,Calm,-,N/A,,Clear,0,2013-03-20 08:55:00
2:15 AM,57.2,26.6,31,30.01,10.0,Calm,Calm,-,N/A,,Clear,0,2013-03-20 09:15:00
2:35 AM,57.2,23.0,27,30.00,10.0,Calm,Calm,-,N/A,,Clear,0,2013-03-20 09:35:00
2:55 AM,59.0,30.2,34,29.98,10.0,Calm,Calm,-,N/A,,Clear,0,2013-03-20 09:55:00
3:15 AM,57.2,28.4,33,29.97,10.0,Calm,Calm,-,N/A,,Clear,0,2013-03-20 10:15:00
3:35 AM,59.0,30.2,34,29.96,10.0,Calm,Calm,-,N/A,,Clear,0,2013-03-20 10:35:00
3:55 AM,62.6,24.8,24,29.94,10.0,Calm,Calm,-,N/A,,Clear,0,2013-03-20 10:55:00
4:15 AM,62.6,23.0,22,29.94,10.0,Calm,Calm,-,N/A,,Clear,0,2013-03-20 11:15:00
4:35 AM,64.4,21.2,19,29.95,10.0,Calm,Calm,-,N/A,,Clear,0,2013-03-20 11:35:00
4:55 AM,62.6,21.2,20,29.94,10.0,Calm,Calm,-,N/A,,Clear,0,2013-03-20 11:55:00
5:15 AM,62.6,21.2,20,29.93,5.0,Calm,Calm,-,N/A,,Haze,0,2013-03-20 12:15:00
5:35 AM,57.2,23.0,27,29.92,9.0,Calm,Calm,-,N/A,,Clear,0,2013-03-20 12:35:00
5:55 AM,59.0,26.6,29,29.93,10.0,Calm,Calm,-,N/A,Thunderstorm,Clear,0,2013-03-20 12:55:00
6:15 AM,62.6,24.8,24,29.93,10.0,Calm,Calm,-,N/A,Thunderstorm,Clear,0,2013-03-20 13:15:00
6:35 AM,66.2,28.4,24,29.92,10.0,SW,10.4,-,N/A,,Clear,220,2013-03-20 13:35:00
6:55 AM,66.2,30.2,26,29.92,10.0,SW,12.7,-,N/A,,Clear,220,2013-03-20 13:55:00
7:15 AM,66.2,32.0,28,29.93,10.0,SW,11.5,-,N/A,,Clear,220,2013-03-20 14:15:00
7:35 AM,66.2,32.0,28,29.93,10.0,SSW,10.4,-,N/A,Thunderstorm,Clear,210,2013-03-20 14:35:00
7:55 AM,66.2,32.0,28,29.94,10.0,SW,9.2,-,N/A,,Clear,220,2013-03-20 14:55:00
8:15 AM,68.0,32.0,26,29.94,10.0,SSW,9.2,-,N/A,,Clear,210,2013-03-20 15:15:00
8:55 AM,68.0,30.2,24,29.95,10.0,ENE,5.8,-,N/A,,Clear,70,2013-03-20 15:55:00
9:15 AM,68.0,28.4,23,29.95,10.0,ENE,4.6,-,N/A,,Clear,60,2013-03-20 16:15:00
9:35 AM,68.0,28.4,23,29.96,10.0,Calm,Calm,-,N/A,Thunderstorm,Clear,0,2013-03-20 16:35:00
9:55 AM,71.6,32.0,23,29.95,10.0,WSW,15.0,-,N/A,,Clear,240,2013-03-20 16:55:00
10:15 AM,71.6,32.0,23,29.95,10.0,SW,15.0,-,N/A,,Clear,220,2013-03-20 17:15:00
10:35 AM,73.4,32.0,22,29.95,10.0,SSW,5.8,-,N/A,,Clear,210,2013-03-20 17:35:00
10:55 AM,73.4,32.0,22,29.95,10.0,SW,13.8,-,N/A,,Clear,220,2013-03-20 17:55:00
11:15 AM,75.2,32.0,21,29.95,10.0,SW,20.7,24.2,N/A,,Clear,230,2013-03-20 18:15:00
11:35 AM,73.4,30.2,20,29.95,10.0,SW,19.6,26.5,N/A,,Clear,230,2013-03-20 18:35:00
11:55 AM,73.4,28.4,19,29.95,10.0,WSW,17.3,24.2,N/A,,Clear,240,2013-03-20 18:55:00
12:15 PM,73.4,26.6,18,29.94,10.0,WSW,18.4,-,N/A,,Clear,240,2013-03-20 19:15:00
12:35 PM,73.4,24.8,16,29.94,10.0,SW,19.6,-,N/A,,Clear,220,2013-03-20 19:35:00
12:55 PM,73.4,24.8,16,29.93,10.0,SW,21.9,26.5,N/A,,Clear,230,2013-03-20 19:55:00
1:15 PM,73.4,26.6,18,29.93,10.0,SW,17.3,-,N/A,,Clear,230,2013-03-20 20:15:00
1:35 PM,73.4,26.6,18,29.92,10.0,SW,13.8,-,N/A,,Partly Cloudy,220,2013-03-20 20:35:00
1:55 PM,73.4,28.4,19,29.92,10.0,SW,16.1,21.9,N/A,,Clear,230,2013-03-20 20:55:00
2:15 PM,73.4,28.4,19,29.90,10.0,SSW,15.0,18.4,N/A,,Clear,210,2013-03-20 21:15:00
2:35 PM,75.2,26.6,17,29.90,10.0,SSW,17.3,-,N/A,,Clear,210,2013-03-20 21:35:00
2:55 PM,75.2,26.6,17,29.90,10.0,SW,16.1,23.0,N/A,Thunderstorm,Clear,230,2013-03-20 21:55:00
3:15 PM,75.2,26.6,17,29.89,10.0,SW,16.1,-,N/A,,Clear,230,2013-03-20 22:15:00
3:35 PM,75.2,26.6,17,29.89,10.0,SW,16.1,-,N/A,,Clear,230,2013-03-20 22:35:00
3:55 PM,75.2,26.6,17,29.88,10.0,SW,13.8,20.7,N/A,,Clear,230,2013-03-20 22:55:00
4:15 PM,75.2,26.6,17,29.87,10.0,SW,13.8,-,N/A,,Clear,220,2013-03-20 23:15:00
4:35 PM,75.2,26.6,17,29.87,10.0,WSW,12.7,-,N/A,,Clear,250,2013-03-20 23:35:00
4:55 PM,73.4,26.6,18,29.86,10.0,SW,10.4,16.1,N/A,,Clear,230,2013-03-20 23:55:00
5:15 PM,73.4,26.6,18,29.86,10.0,SW,6.9,-,N/A,Thunderstorm,Clear,230,2013-03-21 00:15:00
5:35 PM,73.4,26.6,18,29.86,10.0,SW,5.8,-,N/A,,Clear,230,2013-03-21 00:35:00
5:55 PM,73.4,28.4,19,29.85,10.0,Calm,Calm,-,N/A,,Clear,0,2013-03-21 00:55:00
6:15 PM,73.4,28.4,19,29.85,10.0,Calm,Calm,-,N/A,,Clear,0,2013-03-21 01:15:00
6:35 PM,71.6,30.2,22,29.84,10.0,ESE,5.8,-,N/A,,Clear,120,2013-03-21 01:35:00
6:55 PM,71.6,28.4,20,29.84,10.0,Calm,Calm,-,N/A,,Clear,0,2013-03-21 01:55:00
7:15 PM,71.6,30.2,22,29.83,10.0,Calm,Calm,-,N/A,,Clear,0,2013-03-21 02:15:00
7:35 PM,71.6,28.4,20,29.83,10.0,ESE,4.6,-,N/A,,Clear,120,2013-03-21 02:35:00
7:55 PM,71.6,28.4,20,29.82,10.0,SSE,3.5,-,N/A,,Clear,160,2013-03-21 02:55:00
8:15 PM,69.8,28.4,21,29.82,10.0,Calm,Calm,-,N/A,,Clear,0,2013-03-21 03:15:00
8:35 PM,68.0,28.4,23,29.82,10.0,SW,5.8,-,N/A,,Clear,220,2013-03-21 03:35:00
8:55 PM,68.0,26.6,21,29.82,10.0,SSW,9.2,-,N/A,Thunderstorm,Clear,210,2013-03-21 03:55:00
9:15 PM,68.0,26.6,21,29.82,10.0,Calm,Calm,-,N/A,,Clear,0,2013-03-21 04:15:00
9:35 PM,66.2,28.4,24,29.81,10.0,Calm,Calm,-,N/A,,Clear,0,2013-03-21 04:35:00
9:55 PM,66.2,26.6,23,29.81,10.0,West,8.1,-,N/A,Thunderstorm,Clear,260,2013-03-21 04:55:00
10:35 PM,66.2,28.4,24,29.81,10.0,Calm,Calm,-,N/A,,Clear,0,2013-03-21 05:35:00
11:15 PM,64.4,30.2,28,29.81,10.0,Calm,Calm,-,N/A,,Clear,0,2013-03-21 06:15:00
11:35 PM,62.6,30.2,30,29.80,10.0,WSW,9.2,-,N/A,,Clear,240,2013-03-21 06:35:00
11:55 PM,62.6,32.0,32,29.80,10.0,Calm,Calm,-,N/A,Thunderstorm,Clear,0,2013-03-21 06:55:00